Regional Weather Roundup
Issued by NWS Albany, NY

Home | Current Version | Previous Version | Text Only | Print | Product List | Glossary On
Versions: 1 2 3 4 5 6 7 8 9 10 11 12 13 14 15 16 17 18 19 20 21 22 23 24 25 26 27 28
000
ASUS41 KALY 221410
RWRALY

NEW YORK STATE HOURLY WEATHER ROUNDUP
NATIONAL WEATHER SERVICE ALBANY NY
1000 AM EDT SAT JUL 22 2017

NOTE: "FAIR" INDICATES FEW OR NO CLOUDS BELOW 12,000 FEET WITH NO
SIGNIFICANT WEATHER AND/OR NO OBSTRUCTIONS TO VISIBILITY.

NYZ032-033-038>043-046>054-057>066-NYZ062>081-082-084-221500-
EAST


CITY           SKY/WX    TMP DP  RH WIND       PRES   REMARKS
ALBANY         CLOUDY    75  60  59 S5        29.90F
GLENS FALLS    CLOUDY    71  62  73 S6        29.89F
POUGHKEEPSIE   CLOUDY    75  66  73 CALM      29.89F
NEWBURGH       PTSUNNY   75  66  73 CALM      29.93S
MONTGOMERY     MOSUNNY   75  64  68 CALM      29.91F
WHITE PLAINS   SUNNY     81  61  50 NW3       29.90S
ISLIP          PTSUNNY   84  61  45 CALM      29.88S
NEW YORK CITY  MOSUNNY   82  66  58 NE9       29.87F
CENTRAL PARK   SUNNY     82  66  58 NE5       29.91F
$$

NYZ005>009-017-018-044>046-055-056-221500-
CENTRAL


CITY           SKY/WX    TMP DP  RH WIND       PRES   REMARKS
FULTON         PTSUNNY   73  65  75 SW6       29.91R
SYRACUSE       CLOUDY    73  63  70 SW6       29.90S
ROME           MOSUNNY   71  62  73 CALM      29.92S
ELMIRA         MOSUNNY   73  67  81 W3        29.93F
BINGHAMTON     CLOUDY    70  64  81 SW6       29.95F
$$

NYZ026>034-041>043-087-221500-
NORTH


CITY           SKY/WX    TMP DP  RH WIND       PRES   REMARKS
WATERTOWN      CLOUDY    71  65  81 SW8       29.88S
FORT DRUM      NOT AVBL
OGDENSBURG     FAIR      76  64  65 NE6       29.87F
MASSENA        MOSUNNY   72  61  68 NE9       29.89F
SARANAC LAKE   CLOUDY    70  62  76 CALM      29.91F
PLATTSBURGH    PTSUNNY   69  56  62 N12       29.89F
$$

NYZ001>004-010>016-019>021-085-221500-
WEST


CITY           SKY/WX    TMP DP  RH WIND       PRES   REMARKS
NIAGARA FALLS  PTSUNNY   75  62  64 CALM      29.90F
BUFFALO        CLOUDY    73  64  73 SE5       29.91S
DUNKIRK        CLOUDY    72  66  81 CALM      29.90F
JAMESTOWN      CLOUDY    66  61  82 S5        29.95F
WELLSVILLE     PTSUNNY   73  64  73 CALM      29.99F
ROCHESTER      CLOUDY    73  67  81 W3        29.92R
PENN YAN       CLOUDY    74  61  63 CALM      29.94S
$$

             KEY
       WCI = WIND CHILL INDEX
       VSB = VISIBILITY
       HX  = HEAT INDEX
$$




USA.gov is the U.S. government's official web portal to all federal, state and local government web resources and services.